Home > Weather > Casper > Past weeks

Flag for USA Past Weather in Casper, Wyoming, USA — Yesterday and Last 2 Weeks

Now
63 °F

Scattered clouds.


Feels Like: 63 °F
Forecast: 46 / 64 °F
Wind: 13 mph from Northeast

Location: Natrona County International Airport

Current Time: Aug 25, 2016 at 4:17:21 PM

Latest Report: Aug 25, 2016 at 2:53 PM


Visibility: 10 mi

Pressure: 30.15 "Hg (25.06 "Hg at 1569m altitude)

Humidity: 52%

Dew Point: 45 °F

Location of CasperLocation

Past Weather in Casper — Graph

°F

Casper Temperature Yesterday

Maximum temperature yesterday: 73 °F (at 3:53 PM)
Minimum temperature yesterday: 44 °F (at 6:53 AM)
Average temperature yesterday: 59 °F

High & Low Weather Summary for the Past Weeks

 TemperatureHumidityPressure
High92 °F (Aug 10, 4:53 PM)100% (Aug 18, 9:53 PM)30.33 "Hg (Aug 18, 9:53 PM)
Low39 °F (Aug 20, 4:53 AM)6% (Aug 10, 5:53 PM)29.62 "Hg (Aug 22, 4:53 PM)
Average64 °F49%29.98 "Hg
* Reported Aug 10 2:53 PM — Aug 25 2:53 PM, Casper, Weather by CustomWeather, © 2016

Note: Actual official high and low records may vary slightly from our data, if they occured in-between our weather recording intervals... More about our weather records

Advertising

Casper Weather History for the Previous 24 Hours

Scroll right to see more
 ConditionsComfort  
Time TempWeatherWind HumidityBarometerVisibility
2:53 PM
Thu, Aug 25
63 °FScattered clouds.13 mph52%30.15 "Hg10 mi
1:53 PM62 °FMore clouds than sun.12 mph54%30.17 "Hg10 mi
12:53 PM58 °FMostly cloudy.12 mph60%30.20 "Hg10 mi
11:53 AM57 °FScattered clouds.8 mph64%30.21 "Hg10 mi
10:53 AM57 °FOvercast.12 mph64%30.21 "Hg10 mi
9:53 AM54 °FMostly cloudy.10 mph77%30.23 "Hg10 mi
8:53 AM50 °FMostly cloudy.10 mph86%30.24 "Hg10 mi
7:53 AM49 °FOvercast.9 mph90%30.22 "Hg10 mi
6:53 AM48 °FMostly cloudy.8 mph93%30.21 "Hg10 mi
5:53 AM48 °FMostly cloudy.10 mph93%30.19 "Hg10 mi
4:53 AM47 °FOvercast.7 mph97%30.20 "Hg10 mi
4:02 AM47 °FLight rain. Mostly cloudy.12 mph97%30.33 "Hg9 mi
2:53 AM48 °FOvercast.15 mph96%30.18 "Hg10 mi
1:53 AM49 °FMostly cloudy.14 mph93%30.19 "Hg10 mi
12:53 AM49 °FHeavy rain. Fog.15 mph93%30.21 "Hg2 mi
11:53 PM
Wed, Aug 24
51 °FRain. Mostly cloudy.14 mph86%30.20 "Hg7 mi
10:53 PM55 °FOvercast.15 mph64%30.16 "Hg10 mi
9:53 PM57 °FPassing clouds.21 mph53%30.16 "Hg10 mi
8:53 PM59 °FPassing clouds.22 mph49%30.14 "Hg10 mi
7:53 PM63 °FPartly sunny.18 mph40%30.09 "Hg10 mi
6:53 PM69 °FSunny.20 mph27%30.07 "Hg10 mi
5:53 PM72 °FSunny.15 mph25%30.05 "Hg10 mi
4:53 PM73 °FSunny.14 mph25%30.03 "Hg10 mi
Weather by CustomWeather, © 2016

See weather overviewHow to use our weather pages